• Em Portugal
  • Lista de países
  • Para 7 dias
  • Temperatura da água
  • Mapas de satélite
  • Mapa do tempo
  • Widgets de tempo
  • user-avatar
    Iniciar Sessão

    Previsão horária em Slobozia

    Hoje, 19 Outubro, Quinta-feira

    Tempo Temperatura Precipitação Vento Pressão Humidade
    00:00 +16°C° 0 mm 3 m/s 763 mmHg 75%
    01:00 +16°C° 0 mm 3 m/s 762 mmHg 75%
    02:00 +16°C° 0 mm 2 m/s 762 mmHg 76%
    03:00 +15°C° 0 mm 2 m/s 762 mmHg 76%
    04:00 +15°C° 0 mm 2 m/s 762 mmHg 75%
    05:00 +15°C° 0 mm 2 m/s 762 mmHg 75%
    06:00 +16°C° 0 mm 2 m/s 762 mmHg 73%
    07:00 +16°C° 0 mm 2 m/s 762 mmHg 70%
    08:00 +17°C° 0 mm 3 m/s 762 mmHg 67%
    09:00 +19°C° 0 mm 3 m/s 762 mmHg 59%
    10:00 +21°C° 0 mm 3 m/s 762 mmHg 51%
    11:00 +23°C° 0 mm 4 m/s 762 mmHg 43%
    12:00 +25°C° 0 mm 4 m/s 761 mmHg 41%
    13:00 +26°C° 0 mm 4 m/s 761 mmHg 38%
    14:00 +27°C° 0 mm 4 m/s 761 mmHg 35%
    15:00 +25°C° 0 mm 4 m/s 761 mmHg 39%
    16:00 +24°C° 0 mm 3 m/s 760 mmHg 44%
    17:00 +21°C° 0 mm 3 m/s 760 mmHg 48%
    18:00 +20°C° 0 mm 3 m/s 760 mmHg 51%
    19:00 +19°C° 0 mm 3 m/s 761 mmHg 54%
    20:00 +18°C° 0 mm 3 m/s 761 mmHg 58%
    21:00 +18°C° 0 mm 3 m/s 761 mmHg 59%
    22:00 +17°C° 0 mm 3 m/s 761 mmHg 60%
    23:00 +17°C° 0 mm 3 m/s 761 mmHg 62%

    Amanhã, 20 Outubro, Sexta-feira

    Tempo Temperatura Precipitação Vento Pressão Humidade
    00:00 +16°C° 0 mm 2 m/s 761 mmHg 63%
    01:00 +16°C° 0 mm 2 m/s 761 mmHg 65%
    02:00 +16°C° 0 mm 2 m/s 761 mmHg 67%
    03:00 +15°C° 0 mm 2 m/s 761 mmHg 68%
    04:00 +15°C° 0 mm 1 m/s 761 mmHg 69%
    05:00 +15°C° 0 mm 1 m/s 760 mmHg 69%
    06:00 +16°C° 0 mm 1 m/s 761 mmHg 66%
    07:00 +16°C° 0 mm 1 m/s 761 mmHg 63%
    08:00 +18°C° 0 mm 1 m/s 761 mmHg 60%
    09:00 +20°C° 0 mm 1 m/s 761 mmHg 55%
    10:00 +21°C° 0 mm 1 m/s 761 mmHg 49%
    11:00 +23°C° 0 mm 1 m/s 761 mmHg 44%
    12:00 +24°C° 0 mm 1 m/s 761 mmHg 42%
    13:00 +25°C° 0 mm 1 m/s 761 mmHg 39%
    14:00 +25°C° 0 mm 1 m/s 761 mmHg 37%
    15:00 +24°C° 0 mm 1 m/s 761 mmHg 40%
    16:00 +23°C° 0 mm 1 m/s 761 mmHg 44%
    17:00 +22°C° 0 mm 1 m/s 761 mmHg 47%
    18:00 +21°C° 0 mm 1 m/s 761 mmHg 50%
    19:00 +19°C° 0 mm 2 m/s 761 mmHg 53%
    20:00 +19°C° 0 mm 2 m/s 762 mmHg 56%
    21:00 +18°C° 0 mm 2 m/s 762 mmHg 60%
    22:00 +17°C° 0 mm 2 m/s 762 mmHg 64%
    23:00 +17°C° 0 mm 2 m/s 762 mmHg 67%

    Depois de amanhã, 21 Outubro, Sábado

    Tempo Temperatura Precipitação Vento Pressão Humidade
    00:00 +16°C° 0 mm 2 m/s 762 mmHg 71%
    01:00 +16°C° 0 mm 2 m/s 762 mmHg 75%
    02:00 +15°C° 0 mm 2 m/s 762 mmHg 78%
    03:00 +15°C° 0 mm 2 m/s 762 mmHg 81%
    04:00 +14°C° 0 mm 2 m/s 762 mmHg 83%
    05:00 +14°C° 0 mm 2 m/s 762 mmHg 86%
    06:00 +13°C° 0 mm 3 m/s 762 mmHg 84%
    07:00 +13°C° 0 mm 3 m/s 763 mmHg 82%
    08:00 +14°C° 0 mm 3 m/s 763 mmHg 80%
    09:00 +16°C° 0 mm 3 m/s 763 mmHg 74%
    10:00 +18°C° 0 mm 3 m/s 763 mmHg 67%
    11:00 +19°C° 0 mm 2 m/s 763 mmHg 60%
    12:00 +20°C° 0 mm 2 m/s 763 mmHg 57%
    13:00 +20°C° 0 mm 2 m/s 762 mmHg 54%
    14:00 +21°C° 0 mm 2 m/s 762 mmHg 52%
    15:00 +20°C° 0 mm 2 m/s 762 mmHg 54%
    16:00 +19°C° 0 mm 2 m/s 762 mmHg 57%
    17:00 +19°C° 0 mm 1 m/s 762 mmHg 59%
    18:00 +19°C° 0 mm 1 m/s 762 mmHg 62%
    19:00 +18°C° 0 mm 1 m/s 762 mmHg 64%
    20:00 +16°C° 0 mm 1 m/s 762 mmHg 66%
    21:00 +16°C° 0 mm 1 m/s 762 mmHg 67%
    22:00 +16°C° 0 mm 1 m/s 762 mmHg 67%
    23:00 +16°C° 0 mm 1 m/s 762 mmHg 68%

    22 Outubro, Domingo

    Tempo Temperatura Precipitação Vento Pressão Humidade
    00:00 +16°C° 0 mm 1 m/s 762 mmHg 68%
    01:00 +16°C° 0 mm 1 m/s 762 mmHg 69%
    02:00 +15°C° 0 mm 1 m/s 762 mmHg 70%
    03:00 +15°C° 0 mm 1 m/s 762 mmHg 72%
    04:00 +14°C° 0 mm 1 m/s 761 mmHg 74%
    05:00 +14°C° 0 mm 1 m/s 761 mmHg 76%
    06:00 +14°C° 0,1 mm 1 m/s 761 mmHg 75%
    07:00 +15°C° 0,1 mm 1 m/s 762 mmHg 74%
    08:00 +15°C° 0,1 mm 2 m/s 762 mmHg 73%
    09:00 +16°C° 0,1 mm 2 m/s 762 mmHg 69%
    10:00 +17°C° 0,1 mm 2 m/s 762 mmHg 66%
    11:00 +18°C° 0,1 mm 2 m/s 762 mmHg 63%
    12:00 +18°C° 0,1 mm 2 m/s 762 mmHg 60%
    13:00 +19°C° 0,1 mm 2 m/s 761 mmHg 58%
    14:00 +19°C° 0,1 mm 2 m/s 761 mmHg 56%
    15:00 +19°C° 0,2 mm 3 m/s 761 mmHg 59%
    16:00 +18°C° 0,2 mm 3 m/s 761 mmHg 62%
    17:00 +17°C° 0,2 mm 3 m/s 761 mmHg 65%
    18:00 +17°C° 0 mm 3 m/s 761 mmHg 67%
    19:00 +16°C° 0 mm 3 m/s 761 mmHg 69%
    20:00 +14°C° 0 mm 4 m/s 761 mmHg 71%
    21:00 +14°C° 0 mm 4 m/s 761 mmHg 72%
    22:00 +14°C° 0 mm 4 m/s 761 mmHg 73%
    23:00 +14°C° 0 mm 4 m/s 761 mmHg 74%

    23 Outubro, Segunda-feira

    Tempo Temperatura Precipitação Vento Pressão Humidade
    00:00 +14°C° 0 mm 3 m/s 761 mmHg 75%
    01:00 +14°C° 0 mm 3 m/s 761 mmHg 77%
    02:00 +14°C° 0 mm 3 m/s 761 mmHg 79%
    03:00 +14°C° 0 mm 4 m/s 761 mmHg 80%
    04:00 +14°C° 0 mm 4 m/s 761 mmHg 81%
    05:00 +14°C° 0 mm 4 m/s 761 mmHg 83%
    06:00 +14°C° 0,1 mm 5 m/s 761 mmHg 80%
    07:00 +14°C° 0,1 mm 5 m/s 761 mmHg 78%
    08:00 +14°C° 0,1 mm 5 m/s 761 mmHg 76%
    09:00 +14°C° 0,1 mm 6 m/s 761 mmHg 72%
    10:00 +15°C° 0,1 mm 6 m/s 761 mmHg 68%
    11:00 +15°C° 0,1 mm 6 m/s 761 mmHg 64%
    12:00 +16°C° 0,1 mm 6 m/s 761 mmHg 65%
    13:00 +16°C° 0,1 mm 5 m/s 761 mmHg 66%
    14:00 +16°C° 0,1 mm 5 m/s 761 mmHg 67%
    15:00 +15°C° 0,1 mm 5 m/s 761 mmHg 68%
    16:00 +15°C° 0,1 mm 5 m/s 761 mmHg 69%
    17:00 +14°C° 0,1 mm 5 m/s 761 mmHg 69%
    18:00 +14°C° 0,1 mm 5 m/s 762 mmHg 66%
    19:00 +13°C° 0,1 mm 5 m/s 762 mmHg 63%
    20:00 +13°C° 0,1 mm 5 m/s 762 mmHg 59%
    21:00 +13°C° 0 mm 5 m/s 763 mmHg 57%
    22:00 +12°C° 0 mm 5 m/s 763 mmHg 55%
    23:00 +12°C° 0 mm 5 m/s 763 mmHg 53%

    24 Outubro, Terça-feira

    Tempo Temperatura Precipitação Vento Pressão Humidade
    00:00 +12°C° 0 mm 5 m/s 764 mmHg 54%
    01:00 +10°C° 0 mm 5 m/s 764 mmHg 54%
    02:00 +10°C° 0 mm 5 m/s 764 mmHg 54%
    03:00 +10°C° 0 mm 5 m/s 764 mmHg 54%
    04:00 +9°C° 0 mm 5 m/s 765 mmHg 54%
    05:00 +9°C° 0 mm 5 m/s 765 mmHg 54%
    06:00 +9°C° 0 mm 6 m/s 765 mmHg 53%
    07:00 +9°C° 0 mm 6 m/s 766 mmHg 51%
    08:00 +9°C° 0 mm 7 m/s 766 mmHg 50%
    09:00 +10°C° 0 mm 7 m/s 766 mmHg 45%
    10:00 +11°C° 0 mm 7 m/s 767 mmHg 41%
    11:00 +12°C° 0 mm 7 m/s 767 mmHg 37%
    12:00 +14°C° 0 mm 7 m/s 767 mmHg 35%
    13:00 +14°C° 0 mm 7 m/s 767 mmHg 32%
    14:00 +14°C° 0 mm 7 m/s 767 mmHg 30%
    15:00 +13°C° 0 mm 6 m/s 767 mmHg 31%
    16:00 +13°C° 0 mm 6 m/s 768 mmHg 32%
    17:00 +12°C° 0 mm 5 m/s 768 mmHg 33%
    18:00 +10°C° 0 mm 6 m/s 768 mmHg 34%
    19:00 +9°C° 0 mm 6 m/s 769 mmHg 34%
    20:00 +8°C° 0 mm 6 m/s 769 mmHg 34%
    21:00 +8°C° 0 mm 6 m/s 770 mmHg 35%
    22:00 +7°C° 0 mm 6 m/s 770 mmHg 36%
    23:00 +7°C° 0 mm 6 m/s 770 mmHg 36%
    Mostrar mais